User: anonymous   Login
Location: Brno
(49.2000°N, 16.6330°E)
Time: 02:44:56
(UTC+01:00)
Language:

Cosmos 1459 Rocket - Orbit

View from above orbital plane
View from above orbital plane
View from above satellite
View from above satellite

Ground track
Ground track

The orbit data is extracted from the following two-line orbital elements,

1 14059U 83042B   17052.36598483  .00000026  00000-0  10380-4 0  9991
2 14059  82.9745 147.9086 0041692 230.7163 129.0295 13.78576093699792
Epoch (UTC): 21 February 2017 08:47:01
Eccentricity: 0.0041692
inclination: 82.9745°
perigee height: 938 km
apogee height: 999 km
right ascension of ascending node: 147.9086°
argument of perigee: 230.7163°
revolutions per day: 13.78576093
mean anomaly at epoch: 129.0295°
orbit number at epoch: 69979

The dashed part of the orbit path shows where the satellite is in the earth's shadow,  

DLR